Time,TemperatureF,DewpointF,PressureIn,WindDirection,WindDirectionDegrees,WindSpeedMPH,WindSpeedGustMPH,Humidity,HourlyPrecipIn,Conditions,Clouds,dailyrainin,SoftwareType,DateUTC
2013-03-01 00:00:00,30.9,30.4,29.53,NNW,338,4.9,5.8,98,0.00,,OVC,0.00,VWS V14.01,2013-03-01 05:00:00,
2013-03-01 00:01:00,30.9,30.4,29.53,NNW,338,4.3,5.8,98,0.00,,OVC,0.00,VWS V14.01,2013-03-01 05:01:00,
2013-03-01 00:06:00,30.9,30.4,29.50,NNW,338,3.6,4.3,98,0.00,,OVC,0.00,VWS V14.01,2013-03-01 05:06:00,
2013-03-01 00:11:00,30.9,30.4,29.50,NNW,338,4.0,10.3,98,0.00,,OVC,0.00,VWS V14.01,2013-03-01 05:11:00,
2013-03-01 00:16:00,30.9,30.4,29.50,NNW,338,3.4,3.6,98,0.00,,OVC,0.00,VWS V14.01,2013-03-01 05:16:00,
2013-03-01 00:21:00,31.1,30.6,29.50,NW,315,5.4,5.8,98,0.00,,OVC,0.00,VWS V14.01,2013-03-01 05:21:00,
2013-03-01 00:26:00,31.1,30.6,29.50,NNW,338,6.3,6.3,98,0.00,,OVC,0.00,VWS V14.01,2013-03-01 05:26:00,
2013-03-01 00:30:00,31.1,30.6,29.50,NNW,338,6.3,6.3,98,0.00,,OVC,36.01,VWS V14.01,2013-03-01 05:30:00,
2013-03-01 00:31:00,31.1,30.6,29.50,NNW,338,4.9,4.9,98,0.00,,OVC,36.01,VWS V14.01,2013-03-01 05:31:00,
2013-03-01 00:36:00,31.1,30.6,29.50,NNW,338,4.3,6.5,98,0.00,,OVC,36.01,VWS V14.01,2013-03-01 05:36:00,
2013-03-01 00:41:00,31.1,30.6,29.50,NNW,338,2.9,3.6,98,0.00,,OVC,36.01,VWS V14.01,2013-03-01 05:41:00,
2013-03-01 00:46:00,31.1,30.6,29.50,NW,315,5.4,6.7,98,0.00,,OVC,36.01,VWS V14.01,2013-03-01 05:46:00,
2013-03-01 00:51:00,31.1,30.6,29.53,NW,315,3.4,6.3,98,0.00,,OVC,36.01,VWS V14.01,2013-03-01 05:51:00,
2013-03-01 00:56:00,31.1,30.6,29.53,NNW,338,4.5,5.8,98,0.00,,OVC,36.01,VWS V14.01,2013-03-01 05:56:00,
2013-03-01 01:00:00,31.1,30.6,29.53,NNW,338,4.0,5.8,98,0.00,,OVC,36.01,VWS V14.01,2013-03-01 06:00:00,
2013-03-01 01:01:00,31.1,30.6,29.53,NW,315,6.3,6.3,98,0.00,,OVC,36.01,VWS V14.01,2013-03-01 06:01:00,
2013-03-01 01:11:00,31.1,30.6,29.50,NNW,338,5.6,6.5,98,0.00,,OVC,36.01,VWS V14.01,2013-03-01 06:11:00,
2013-03-01 01:16:00,31.1,30.6,29.50,NNW,338,6.0,6.0,98,0.00,,OVC,36.01,VWS V14.01,2013-03-01 06:16:00,
2013-03-01 01:21:00,31.1,30.6,29.50,NNW,338,6.9,6.9,98,0.00,,OVC,36.01,VWS V14.01,2013-03-01 06:21:00,
2013-03-01 01:26:00,31.1,30.6,29.50,NNW,338,4.0,6.0,98,0.00,,OVC,36.01,VWS V14.01,2013-03-01 06:26:00,
2013-03-01 01:30:00,31.1,30.6,29.50,NNW,338,4.0,5.6,98,0.00,,OVC,36.01,VWS V14.01,2013-03-01 06:30:00,
2013-03-01 01:31:00,31.1,30.6,29.50,NNW,338,5.6,5.6,98,0.00,,OVC,36.01,VWS V14.01,2013-03-01 06:31:00,
2013-03-01 01:36:00,31.1,30.6,29.50,NW,315,5.8,5.8,98,0.00,,OVC,36.01,VWS V14.01,2013-03-01 06:36:00,
2013-03-01 01:41:00,31.1,30.6,29.50,NNW,338,3.6,4.5,98,0.00,,OVC,36.01,VWS V14.01,2013-03-01 06:41:00,
2013-03-01 01:46:00,31.1,30.6,29.50,NW,315,5.4,7.4,98,0.00,,OVC,36.01,VWS V14.01,2013-03-01 06:46:00,
2013-03-01 01:56:00,31.1,30.6,29.50,NW,315,4.0,6.0,98,0.00,,OVC,36.01,VWS V14.01,2013-03-01 06:56:00,
2013-03-01 02:00:00,31.1,30.6,29.50,NW,315,4.0,6.0,98,0.00,,OVC,36.01,VWS V14.01,2013-03-01 07:00:00,
2013-03-01 02:01:00,31.3,30.8,29.50,NNW,338,3.4,5.6,98,0.00,,OVC,36.01,VWS V14.01,2013-03-01 07:01:00,
2013-03-01 02:06:00,31.3,30.8,29.50,NNW,338,3.4,5.8,98,0.00,,OVC,36.01,VWS V14.01,2013-03-01 07:06:00,
2013-03-01 02:11:00,31.3,30.8,29.50,NNW,338,4.7,5.6,98,0.00,,OVC,36.01,VWS V14.01,2013-03-01 07:11:00,
2013-03-01 02:16:00,31.3,30.8,29.50,NNW,338,3.8,7.2,98,0.00,,OVC,36.01,VWS V14.01,2013-03-01 07:16:00,
2013-03-01 02:21:00,31.3,30.8,29.47,NNW,338,3.8,4.3,98,0.00,,OVC,36.01,VWS V14.01,2013-03-01 07:21:00,
2013-03-01 02:26:00,31.3,30.8,29.47,NNW,338,4.0,4.0,98,0.00,,OVC,36.01,VWS V14.01,2013-03-01 07:26:00,
2013-03-01 02:30:00,31.3,30.8,29.47,NNW,338,4.0,4.0,98,0.00,,OVC,36.01,VWS V14.01,2013-03-01 07:30:00,
2013-03-01 02:36:00,31.3,30.8,29.50,NNW,338,6.5,6.5,98,0.00,,OVC,36.01,VWS V14.01,2013-03-01 07:36:00,
2013-03-01 02:41:00,31.3,30.8,29.50,NNW,338,5.4,5.6,98,0.00,,OVC,36.01,VWS V14.01,2013-03-01 07:41:00,
2013-03-01 02:46:00,31.3,30.8,29.50,NNW,338,4.7,4.7,98,0.00,,OVC,36.01,VWS V14.01,2013-03-01 07:46:00,
2013-03-01 02:51:00,31.3,30.8,29.50,NNW,338,5.6,5.8,98,0.00,,OVC,36.01,VWS V14.01,2013-03-01 07:51:00,
2013-03-01 02:56:00,31.3,30.8,29.50,NNW,338,4.3,5.4,98,0.00,,OVC,36.01,VWS V14.01,2013-03-01 07:56:00,
2013-03-01 03:00:00,31.3,30.8,29.50,NNW,338,4.3,5.4,98,0.00,,OVC,36.01,VWS V14.01,2013-03-01 08:00:00,
2013-03-01 03:01:00,31.3,30.8,29.50,NNW,338,4.9,6.0,98,0.00,,OVC,36.01,VWS V14.01,2013-03-01 08:01:00,
2013-03-01 03:06:00,31.3,30.8,29.50,NNW,338,3.6,5.6,98,0.00,,OVC,36.01,VWS V14.01,2013-03-01 08:06:00,
2013-03-01 03:11:00,31.3,30.8,29.50,NNW,338,3.8,4.9,98,0.00,,OVC,36.01,VWS V14.01,2013-03-01 08:11:00,
2013-03-01 03:16:00,31.3,30.8,29.50,NNW,338,3.1,4.3,98,0.00,,OVC,36.01,VWS V14.01,2013-03-01 08:16:00,
2013-03-01 03:21:00,31.3,30.8,29.50,NNW,338,6.3,6.7,98,0.00,,OVC,36.01,VWS V14.01,2013-03-01 08:21:00,
2013-03-01 03:26:00,31.5,31.0,29.50,NW,315,3.1,4.0,98,0.00,,OVC,36.01,VWS V14.01,2013-03-01 08:26:00,
2013-03-01 03:30:00,31.5,31.0,29.50,NNW,338,3.6,6.5,98,0.00,,OVC,36.01,VWS V14.01,2013-03-01 08:30:00,
2013-03-01 03:31:00,31.5,31.0,29.50,NNW,338,3.4,4.9,98,0.00,,OVC,36.01,VWS V14.01,2013-03-01 08:31:00,
2013-03-01 03:41:00,31.5,31.0,29.50,NW,315,3.8,6.3,98,0.00,,OVC,36.01,VWS V14.01,2013-03-01 08:41:00,
2013-03-01 03:46:00,31.5,31.0,29.50,NNW,338,6.0,6.3,98,0.00,,OVC,36.01,VWS V14.01,2013-03-01 08:46:00,
2013-03-01 03:52:00,31.5,31.0,29.50,NNW,338,4.0,4.7,98,0.00,,OVC,36.01,VWS V14.01,2013-03-01 08:52:00,
2013-03-01 03:57:00,31.5,31.0,29.50,NNW,338,2.9,4.9,98,0.00,,OVC,36.01,VWS V14.01,2013-03-01 08:57:00,
2013-03-01 04:00:00,31.5,31.0,29.50,NW,315,4.9,4.9,98,0.00,,OVC,36.01,VWS V14.01,2013-03-01 09:00:00,
2013-03-01 04:02:00,31.5,31.0,29.53,North,0,3.4,5.8,98,0.00,,OVC,36.01,VWS V14.01,2013-03-01 09:02:00,
2013-03-01 04:07:00,31.5,31.0,29.53,NNW,338,5.4,6.3,98,0.00,,OVC,36.01,VWS V14.01,2013-03-01 09:07:00,
2013-03-01 04:12:00,31.5,31.0,29.53,NNW,338,5.8,6.0,98,0.00,,OVC,36.01,VWS V14.01,2013-03-01 09:12:00,
2013-03-01 04:17:00,31.5,31.0,29.50,NNW,338,4.3,6.9,98,0.00,,OVC,36.01,VWS V14.01,2013-03-01 09:17:00,
2013-03-01 04:22:00,31.5,31.0,29.50,NNW,338,3.8,6.3,98,0.00,,OVC,36.01,VWS V14.01,2013-03-01 09:22:00,
2013-03-01 04:27:00,31.5,31.0,29.50,NNW,338,5.4,6.0,98,0.00,,OVC,36.01,VWS V14.01,2013-03-01 09:27:00,
2013-03-01 04:30:00,31.5,31.0,29.50,NNW,338,3.1,6.0,98,0.00,,OVC,36.01,VWS V14.01,2013-03-01 09:30:00,
2013-03-01 04:32:00,31.5,31.0,29.53,NNW,338,4.5,7.4,98,0.00,,OVC,36.01,VWS V14.01,2013-03-01 09:32:00,
2013-03-01 04:37:00,31.5,31.0,29.53,NNW,338,6.5,6.5,98,0.00,,OVC,36.01,VWS V14.01,2013-03-01 09:37:00,
2013-03-01 04:42:00,31.5,31.0,29.53,North,0,4.9,5.8,98,0.00,,OVC,36.01,VWS V14.01,2013-03-01 09:42:00,
2013-03-01 04:47:00,31.5,31.0,29.53,NNW,338,3.4,4.7,98,0.00,,OVC,36.01,VWS V14.01,2013-03-01 09:47:00,
2013-03-01 04:52:00,31.5,31.0,29.53,NNW,338,3.6,5.6,98,0.00,,OVC,36.01,VWS V14.01,2013-03-01 09:52:00,
2013-03-01 04:57:00,31.5,31.0,29.53,NNW,338,6.5,6.5,98,0.00,,OVC,36.01,VWS V14.01,2013-03-01 09:57:00,
2013-03-01 05:00:00,31.5,31.0,29.53,NNW,338,5.8,5.8,98,0.00,,OVC,36.01,VWS V14.01,2013-03-01 10:00:00,
2013-03-01 05:02:00,31.5,31.0,29.53,NNW,338,6.3,6.3,98,0.00,,OVC,36.01,VWS V14.01,2013-03-01 10:02:00,
2013-03-01 05:07:00,31.3,30.8,29.53,NW,315,5.8,6.5,98,0.00,,OVC,36.01,VWS V14.01,2013-03-01 10:07:00,
2013-03-01 05:12:00,31.3,30.8,29.53,NW,315,2.9,4.7,98,0.00,,OVC,36.01,VWS V14.01,2013-03-01 10:12:00,
2013-03-01 05:17:00,31.3,30.8,29.53,NW,315,5.6,5.6,98,0.00,,OVC,36.01,VWS V14.01,2013-03-01 10:17:00,
2013-03-01 05:22:00,31.3,30.8,29.53,NNW,338,4.3,6.5,98,0.00,,OVC,36.01,VWS V14.01,2013-03-01 10:22:00,
2013-03-01 05:27:00,31.3,30.8,29.53,NW,315,6.0,6.0,98,0.00,,OVC,36.01,VWS V14.01,2013-03-01 10:27:00,
2013-03-01 05:30:00,31.3,30.8,29.53,NW,315,3.1,3.8,98,0.00,,OVC,36.01,VWS V14.01,2013-03-01 10:30:00,
2013-03-01 05:32:00,31.3,30.8,29.53,NNW,338,3.6,5.6,98,0.00,,OVC,36.01,VWS V14.01,2013-03-01 10:32:00,
2013-03-01 05:37:00,31.3,30.8,29.53,NNW,338,3.6,4.9,98,0.00,,OVC,36.01,VWS V14.01,2013-03-01 10:37:00,
2013-03-01 05:42:00,31.1,30.6,29.53,NNW,338,3.6,5.6,98,0.00,,OVC,36.01,VWS V14.01,2013-03-01 10:42:00,
2013-03-01 05:47:00,31.1,30.6,29.53,NNW,338,6.9,6.9,98,0.00,,OVC,36.01,VWS V14.01,2013-03-01 10:47:00,
2013-03-01 05:52:00,31.1,30.6,29.53,NW,315,5.8,6.3,98,0.00,,OVC,36.01,VWS V14.01,2013-03-01 10:52:00,
2013-03-01 05:57:00,31.1,30.6,29.53,NNW,338,5.4,6.5,98,0.00,,OVC,36.01,VWS V14.01,2013-03-01 10:57:00,
2013-03-01 06:00:00,31.1,30.6,29.53,NNW,338,3.4,5.8,98,0.00,,OVC,36.01,VWS V14.01,2013-03-01 11:00:00,
2013-03-01 06:02:00,31.1,30.6,29.56,North,0,2.2,7.4,98,0.00,,OVC,36.01,VWS V14.01,2013-03-01 11:02:00,
2013-03-01 06:07:00,31.1,30.6,29.56,NNW,338,5.8,5.8,98,0.00,,OVC,36.01,VWS V14.01,2013-03-01 11:07:00,
2013-03-01 06:12:00,31.1,30.6,29.56,NNW,338,4.3,5.8,98,0.00,,OVC,0.00,VWS V14.01,2013-03-01 11:12:00,
2013-03-01 06:17:00,31.1,30.6,29.56,NNW,338,2.9,5.8,98,0.00,,OVC,36.01,VWS V14.01,2013-03-01 11:17:00,
2013-03-01 06:22:00,31.1,30.6,29.56,NNW,338,6.3,6.3,98,0.00,,OVC,36.01,VWS V14.01,2013-03-01 11:22:00,
2013-03-01 06:27:00,31.1,30.6,29.56,NNW,338,6.5,6.5,98,0.00,,OVC,36.01,VWS V14.01,2013-03-01 11:27:00,
2013-03-01 06:30:00,31.1,30.6,29.56,NNW,338,2.9,4.9,98,0.00,,OVC,36.01,VWS V14.01,2013-03-01 11:30:00,
2013-03-01 06:32:00,31.1,30.6,29.56,NNW,338,4.9,4.9,98,0.00,,OVC,36.01,VWS V14.01,2013-03-01 11:32:00,
2013-03-01 06:37:00,31.1,30.6,29.56,NNW,338,4.7,5.4,98,0.00,,OVC,36.01,VWS V14.01,2013-03-01 11:37:00,
2013-03-01 06:42:00,31.1,30.6,29.56,NNW,338,3.8,5.8,98,0.00,,OVC,36.01,VWS V14.01,2013-03-01 11:42:00,
2013-03-01 06:47:00,31.1,30.6,29.56,NNW,338,2.9,6.5,98,0.00,,OVC,36.01,VWS V14.01,2013-03-01 11:47:00,
2013-03-01 06:52:00,31.1,30.6,29.56,NNW,338,3.1,6.9,98,0.00,,OVC,36.01,VWS V14.01,2013-03-01 11:52:00,
2013-03-01 06:58:00,31.1,30.6,29.56,NNW,338,3.8,4.9,98,0.00,,OVC,36.01,VWS V14.01,2013-03-01 11:58:00,
2013-03-01 07:00:00,31.1,30.6,29.56,NNW,338,3.6,4.3,98,0.00,,OVC,36.01,VWS V14.01,2013-03-01 12:00:00,
2013-03-01 07:03:00,31.1,30.6,29.56,NNW,338,4.0,5.4,98,0.00,,OVC,36.01,VWS V14.01,2013-03-01 12:03:00,
2013-03-01 07:08:00,31.3,30.8,29.56,NNW,338,4.0,8.7,98,0.00,,OVC,36.01,VWS V14.01,2013-03-01 12:08:00,
2013-03-01 07:13:00,31.3,30.8,29.56,NNW,338,4.7,7.6,98,0.00,,OVC,36.01,VWS V14.01,2013-03-01 12:13:00,
2013-03-01 07:18:00,31.5,31.0,29.56,NW,315,4.9,6.5,98,0.00,,OVC,36.01,VWS V14.01,2013-03-01 12:18:00,
2013-03-01 07:23:00,31.5,31.0,29.56,NNW,338,6.0,8.1,98,0.00,,OVC,36.01,VWS V14.01,2013-03-01 12:23:00,
2013-03-01 07:28:00,31.6,31.1,29.56,NNW,338,5.4,7.4,98,0.00,,OVC,36.01,VWS V14.01,2013-03-01 12:28:00,
2013-03-01 07:30:00,32.5,29.9,29.56,WSW,248,3.4,6.5,90,0.00,,,36.01,VWS V14.01,2013-03-01 12:30:00,
2013-03-01 07:33:00,31.6,31.1,29.56,NNW,338,5.8,5.8,98,0.00,,OVC,36.01,VWS V14.01,2013-03-01 12:33:00,
2013-03-01 07:38:00,31.8,31.1,29.56,NNW,338,6.5,6.5,97,0.00,,OVC,36.01,VWS V14.01,2013-03-01 12:38:00,
2013-03-01 07:43:00,32.0,31.2,29.56,WNW,292,4.9,4.9,97,0.00,,OVC,36.01,VWS V14.01,2013-03-01 12:43:00,
2013-03-01 07:48:00,32.2,31.2,29.56,NNW,338,3.6,5.4,96,0.00,,OVC,36.01,VWS V14.01,2013-03-01 12:48:00,
2013-03-01 07:53:00,32.5,31.5,29.56,NNW,338,3.6,3.8,96,0.00,,OVC,36.01,VWS V14.01,2013-03-01 12:53:00,
2013-03-01 07:58:00,32.5,31.3,29.56,NNW,338,3.6,6.3,95,0.00,,OVC,36.01,VWS V14.01,2013-03-01 12:58:00,
2013-03-01 08:00:00,32.2,29.6,29.56,NNW,338,7.8,7.8,90,0.00,,,36.01,VWS V14.01,2013-03-01 13:00:00,
2013-03-01 08:03:00,32.7,31.2,29.56,NNW,338,5.8,7.2,94,0.00,,OVC,36.01,VWS V14.01,2013-03-01 13:03:00,
2013-03-01 08:08:00,32.7,30.7,29.56,NNW,338,7.8,7.8,92,0.00,,OVC,36.01,VWS V14.01,2013-03-01 13:08:00,
2013-03-01 08:13:00,32.5,29.9,29.56,NNW,338,5.8,5.8,90,0.00,,OVC,36.01,VWS V14.01,2013-03-01 13:13:00,
2013-03-01 08:18:00,32.5,29.9,29.56,NNW,338,4.3,5.6,90,0.00,,OVC,36.01,VWS V14.01,2013-03-01 13:18:00,
2013-03-01 08:23:00,32.5,29.9,29.56,NNW,338,2.7,5.6,90,0.00,,OVC,36.01,VWS V14.01,2013-03-01 13:23:00,
2013-03-01 08:28:00,32.5,29.7,29.56,NNW,338,3.1,6.0,89,0.00,,OVC,36.01,VWS V14.01,2013-03-01 13:28:00,
2013-03-01 08:30:00,32.4,29.2,29.56,NW,315,3.1,6.5,88,0.00,,,36.01,VWS V14.01,2013-03-01 13:30:00,
2013-03-01 08:33:00,32.4,29.5,29.56,NNW,338,5.4,5.6,89,0.00,,OVC,36.01,VWS V14.01,2013-03-01 13:33:00,
2013-03-01 08:38:00,32.4,29.5,29.56,NNW,338,4.0,5.8,89,0.00,,OVC,36.01,VWS V14.01,2013-03-01 13:38:00,
2013-03-01 08:43:00,32.4,29.5,29.56,NNW,338,4.3,5.4,89,0.00,,OVC,36.01,VWS V14.01,2013-03-01 13:43:00,
2013-03-01 08:48:00,32.2,29.6,29.56,North,0,3.4,7.4,90,0.00,,OVC,36.01,VWS V14.01,2013-03-01 13:48:00,
2013-03-01 08:53:00,32.4,29.8,29.56,NNW,338,7.4,7.4,90,0.00,,OVC,36.01,VWS V14.01,2013-03-01 13:53:00,
2013-03-01 08:58:00,32.4,29.5,29.56,NNW,338,4.9,6.3,89,0.00,,OVC,36.01,VWS V14.01,2013-03-01 13:58:00,
2013-03-01 09:00:00,32.4,28.9,29.56,NNW,338,3.1,10.1,87,0.00,,,36.01,VWS V14.01,2013-03-01 14:00:00,
2013-03-01 09:03:00,32.5,29.4,29.56,North,0,6.9,6.9,88,0.00,,OVC,36.01,VWS V14.01,2013-03-01 14:03:00,
2013-03-01 09:08:00,32.4,29.5,29.56,North,0,3.8,4.9,89,0.00,,OVC,36.01,VWS V14.01,2013-03-01 14:08:00,
2013-03-01 09:13:00,32.4,29.5,29.56,NNW,338,4.3,11.2,89,0.00,,OVC,36.01,VWS V14.01,2013-03-01 14:13:00,
2013-03-01 09:18:00,32.5,29.4,29.56,NNW,338,6.3,7.8,88,0.00,,OVC,36.01,VWS V14.01,2013-03-01 14:18:00,
2013-03-01 09:23:00,32.4,29.2,29.56,NW,315,6.5,8.1,88,0.00,,OVC,36.01,VWS V14.01,2013-03-01 14:23:00,
2013-03-01 09:28:00,32.4,29.2,29.56,North,0,5.8,6.0,88,0.00,,OVC,36.01,VWS V14.01,2013-03-01 14:28:00,
2013-03-01 09:30:00,33.8,27.7,29.56,NNW,338,7.2,11.0,78,0.00,,,36.01,VWS V14.01,2013-03-01 14:30:00,
2013-03-01 09:33:00,32.4,29.5,29.56,NNW,338,3.8,8.1,89,0.00,,OVC,36.01,VWS V14.01,2013-03-01 14:33:00,
2013-03-01 09:38:00,32.2,29.3,29.56,NNW,338,4.9,6.3,89,0.00,,OVC,36.01,VWS V14.01,2013-03-01 14:38:00,
2013-03-01 09:43:00,32.2,29.3,29.56,NW,315,5.8,6.0,89,0.00,,OVC,36.01,VWS V14.01,2013-03-01 14:43:00,
2013-03-01 09:48:00,32.2,29.0,29.56,NW,315,6.0,10.3,88,0.00,,OVC,36.01,VWS V14.01,2013-03-01 14:48:00,
2013-03-01 09:53:00,32.4,28.9,29.56,NNW,338,4.3,9.8,87,0.00,,OVC,36.01,VWS V14.01,2013-03-01 14:53:00,
2013-03-01 09:58:00,32.4,28.6,29.56,NNW,338,10.5,10.5,86,0.00,,OVC,36.01,VWS V14.01,2013-03-01 14:58:00,
2013-03-01 10:00:00,33.4,27.6,29.56,NNW,338,9.4,12.1,79,0.00,,,36.01,VWS V14.01,2013-03-01 15:00:00,
2013-03-01 10:03:00,32.5,28.5,29.56,NNW,338,6.5,10.3,85,0.00,,OVC,36.01,VWS V14.01,2013-03-01 15:03:00,
2013-03-01 10:08:00,32.9,28.6,29.56,NNW,338,2.7,6.9,84,0.00,,OVC,36.01,VWS V14.01,2013-03-01 15:08:00,
2013-03-01 10:13:00,33.1,28.2,29.56,North,0,9.4,10.3,82,0.00,,OVC,36.01,VWS V14.01,2013-03-01 15:13:00,
2013-03-01 10:18:00,33.3,28.1,29.56,NNW,338,6.3,7.8,81,0.00,,OVC,36.01,VWS V14.01,2013-03-01 15:18:00,
2013-03-01 10:23:00,33.8,28.0,29.56,NNW,338,6.0,8.5,79,0.00,,OVC,36.01,VWS V14.01,2013-03-01 15:23:00,
2013-03-01 10:28:00,33.4,27.3,29.56,NNW,338,6.5,10.1,78,0.00,,OVC,36.01,VWS V14.01,2013-03-01 15:28:00,
2013-03-01 10:30:00,34.3,28.2,29.59,WNW,292,4.7,5.6,78,0.00,,,36.01,VWS V14.01,2013-03-01 15:30:00,
2013-03-01 10:33:00,33.3,27.1,29.56,NNW,338,7.4,7.8,78,0.00,,OVC,36.01,VWS V14.01,2013-03-01 15:33:00,
2013-03-01 10:38:00,33.3,27.5,29.56,North,0,5.8,10.7,79,0.00,,OVC,36.01,VWS V14.01,2013-03-01 15:38:00,
2013-03-01 10:43:00,33.3,27.1,29.56,NNE,22,5.6,8.5,78,0.00,,OVC,36.01,VWS V14.01,2013-03-01 15:43:00,
2013-03-01 10:48:00,33.3,27.1,29.56,NNW,338,7.4,7.4,78,0.00,,OVC,36.01,VWS V14.01,2013-03-01 15:48:00,
2013-03-01 10:53:00,33.4,27.6,29.56,NNW,338,9.4,9.4,79,0.00,,OVC,36.01,VWS V14.01,2013-03-01 15:53:00,
2013-03-01 10:58:00,33.6,27.8,29.56,WNW,292,6.0,7.8,79,0.00,,OVC,36.01,VWS V14.01,2013-03-01 15:58:00,
2013-03-01 11:00:00,35.1,28.0,29.59,NNW,338,7.4,8.5,75,0.00,,,36.01,VWS V14.01,2013-03-01 16:00:00,
2013-03-01 11:03:00,33.8,28.0,29.56,NNW,338,3.6,4.7,79,0.00,,OVC,36.01,VWS V14.01,2013-03-01 16:03:00,
2013-03-01 11:08:00,33.8,27.7,29.56,NNW,338,3.8,10.3,78,0.00,,OVC,36.01,VWS V14.01,2013-03-01 16:08:00,
2013-03-01 11:13:00,33.8,27.7,29.56,WNW,292,7.4,9.6,78,0.00,,OVC,36.01,VWS V14.01,2013-03-01 16:13:00,
2013-03-01 11:18:00,34.0,27.9,29.59,NNW,338,4.7,12.3,78,0.00,,OVC,36.01,VWS V14.01,2013-03-01 16:18:00,
2013-03-01 11:23:00,34.0,27.9,29.59,NW,315,4.7,7.8,78,0.00,,OVC,36.01,VWS V14.01,2013-03-01 16:23:00,
2013-03-01 11:28:00,34.3,27.9,29.59,NNE,22,3.8,5.8,77,0.00,,OVC,36.01,VWS V14.01,2013-03-01 16:28:00,
2013-03-01 11:30:00,34.0,27.5,29.59,NW,315,4.7,7.6,77,0.00,,,36.01,VWS V14.01,2013-03-01 16:30:00,
2013-03-01 11:33:00,34.5,28.1,29.59,North,0,6.9,8.7,77,0.00,,OVC,36.01,VWS V14.01,2013-03-01 16:33:00,
2013-03-01 11:38:00,34.5,28.1,29.59,NW,315,7.6,7.6,77,0.00,,OVC,36.01,VWS V14.01,2013-03-01 16:38:00,
2013-03-01 11:44:00,34.7,27.9,29.59,East,90,3.8,8.7,76,0.00,,OVC,36.01,VWS V14.01,2013-03-01 16:44:00,
2013-03-01 11:48:00,34.7,27.9,29.59,NNW,338,6.3,6.3,76,0.00,,OVC,36.01,VWS V14.01,2013-03-01 16:48:00,
2013-03-01 11:53:00,35.1,28.0,29.59,NNW,338,3.8,7.8,75,0.00,,OVC,36.01,VWS V14.01,2013-03-01 16:53:00,
2013-03-01 11:58:00,35.1,27.6,29.59,NNW,338,7.6,7.6,74,0.00,,OVC,36.01,VWS V14.01,2013-03-01 16:58:00,
2013-03-01 12:00:00,34.0,28.2,29.59,NNW,338,3.4,4.9,79,0.00,,,36.01,VWS V14.01,2013-03-01 17:00:00,
2013-03-01 12:03:00,34.5,27.1,29.59,WNW,292,6.3,8.1,74,0.00,,OVC,36.01,VWS V14.01,2013-03-01 17:03:00,
2013-03-01 12:09:00,34.3,26.9,29.59,NNW,338,5.6,7.4,74,0.00,,OVC,36.01,VWS V14.01,2013-03-01 17:09:00,
2013-03-01 12:14:00,34.3,26.9,29.59,NNW,338,5.6,9.2,74,0.00,,OVC,36.01,VWS V14.01,2013-03-01 17:14:00,
2013-03-01 12:19:00,34.5,27.4,29.59,NNW,338,4.9,8.7,75,0.00,,OVC,36.01,VWS V14.01,2013-03-01 17:19:00,
2013-03-01 12:24:00,34.2,27.4,29.59,NNW,338,8.5,8.5,76,0.00,,OVC,36.01,VWS V14.01,2013-03-01 17:24:00,
2013-03-01 12:29:00,34.2,28.0,29.59,NW,315,4.0,10.1,78,0.00,,OVC,36.01,VWS V14.01,2013-03-01 17:29:00,
2013-03-01 12:30:00,34.0,28.5,29.59,NNW,338,6.9,7.6,80,0.00,,,36.01,VWS V14.01,2013-03-01 17:30:00,
2013-03-01 12:34:00,34.2,28.0,29.59,NNW,338,3.6,6.5,78,0.00,,OVC,36.01,VWS V14.01,2013-03-01 17:34:00,
2013-03-01 12:39:00,34.2,28.0,29.59,NNW,338,6.3,6.3,78,0.00,,OVC,36.01,VWS V14.01,2013-03-01 17:39:00,
2013-03-01 12:44:00,34.0,27.9,29.59,NNW,338,5.4,10.3,78,0.00,,OVC,36.01,VWS V14.01,2013-03-01 17:44:00,
2013-03-01 12:49:00,33.8,27.7,29.59,WNW,292,6.0,10.1,78,0.00,,OVC,36.01,VWS V14.01,2013-03-01 17:49:00,
2013-03-01 12:54:00,33.8,28.0,29.59,NW,315,6.0,7.2,79,0.00,,OVC,36.01,VWS V14.01,2013-03-01 17:54:00,
2013-03-01 12:59:00,33.8,28.0,29.59,NNW,338,5.4,8.1,79,0.00,,OVC,36.01,VWS V14.01,2013-03-01 17:59:00,
2013-03-01 13:00:00,34.3,28.2,29.59,NNW,338,5.6,9.6,78,0.00,,,36.01,VWS V14.01,2013-03-01 18:00:00,
2013-03-01 13:04:00,33.8,28.0,29.56,NNW,338,5.6,5.6,79,0.00,,OVC,36.01,VWS V14.01,2013-03-01 18:04:00,
2013-03-01 13:09:00,33.4,27.6,29.56,NNW,338,6.5,10.7,79,0.00,,OVC,36.01,VWS V14.01,2013-03-01 18:09:00,
2013-03-01 13:14:00,33.6,28.1,29.56,NNW,338,5.6,5.6,80,0.00,,OVC,36.01,VWS V14.01,2013-03-01 18:14:00,
2013-03-01 13:19:00,33.8,28.3,29.59,WNW,292,6.7,6.7,80,0.00,,OVC,36.01,VWS V14.01,2013-03-01 18:19:00,
2013-03-01 13:24:00,34.0,28.5,29.59,NNW,338,7.6,7.6,80,0.00,,OVC,36.01,VWS V14.01,2013-03-01 18:24:00,
2013-03-01 13:29:00,34.0,28.5,29.59,NNW,338,7.8,7.8,80,0.00,,OVC,36.01,VWS V14.01,2013-03-01 18:29:00,
2013-03-01 13:30:00,34.7,28.2,29.56,NNW,338,5.4,7.8,77,0.00,,,36.01,VWS V14.01,2013-03-01 18:30:00,
2013-03-01 13:34:00,34.0,28.8,29.56,NNW,338,3.1,6.0,81,0.00,,OVC,36.01,VWS V14.01,2013-03-01 18:34:00,
2013-03-01 13:39:00,34.3,29.1,29.56,NNW,338,6.5,6.5,81,0.00,,OVC,36.01,VWS V14.01,2013-03-01 18:39:00,
2013-03-01 13:44:00,34.2,28.6,29.56,NNW,338,6.0,7.8,80,0.00,,OVC,36.01,VWS V14.01,2013-03-01 18:44:00,
2013-03-01 13:49:00,34.2,28.6,29.59,NNW,338,11.0,11.0,80,0.00,,OVC,36.01,VWS V14.01,2013-03-01 18:49:00,
2013-03-01 13:54:00,34.2,28.3,29.59,NNW,338,6.0,8.5,79,0.00,,OVC,36.01,VWS V14.01,2013-03-01 18:54:00,
2013-03-01 13:59:00,34.3,28.2,29.59,NNW,338,4.9,7.4,78,0.00,,OVC,36.01,VWS V14.01,2013-03-01 18:59:00,
2013-03-01 14:00:00,33.8,28.3,29.56,NW,315,5.8,8.7,80,0.00,,,36.01,VWS V14.01,2013-03-01 19:00:00,
2013-03-01 14:04:00,34.3,28.5,29.59,NNW,338,7.4,7.4,79,0.00,,OVC,36.01,VWS V14.01,2013-03-01 19:04:00,
2013-03-01 14:09:00,34.3,28.5,29.59,NNW,338,5.8,10.1,79,0.00,,OVC,36.01,VWS V14.01,2013-03-01 19:09:00,
2013-03-01 14:14:00,34.3,28.2,29.59,NNW,338,4.9,7.2,78,0.00,,OVC,36.01,VWS V14.01,2013-03-01 19:14:00,
2013-03-01 14:19:00,34.5,28.4,29.56,NNW,338,5.8,8.7,78,0.00,,OVC,36.01,VWS V14.01,2013-03-01 19:19:00,
2013-03-01 14:24:00,34.5,28.1,29.56,NW,315,7.4,10.5,77,0.00,,OVC,36.01,VWS V14.01,2013-03-01 19:24:00,
2013-03-01 14:29:00,34.7,28.2,29.56,NNW,338,10.1,10.1,77,0.00,,OVC,36.01,VWS V14.01,2013-03-01 19:29:00,
2013-03-01 14:30:00,33.4,30.0,29.56,NNW,338,6.0,6.5,87,0.00,,,36.01,VWS V14.01,2013-03-01 19:30:00,
2013-03-01 14:34:00,34.7,27.9,29.56,NNW,338,6.3,8.5,76,0.00,,OVC,36.01,VWS V14.01,2013-03-01 19:34:00,
2013-03-01 14:39:00,34.5,27.8,29.56,NNW,338,3.6,6.0,76,0.00,,OVC,36.01,VWS V14.01,2013-03-01 19:39:00,
2013-03-01 14:44:00,34.5,28.1,29.56,NNW,338,5.6,6.9,77,0.00,,OVC,36.01,VWS V14.01,2013-03-01 19:44:00,
2013-03-01 14:49:00,34.2,28.0,29.56,NNW,338,7.6,9.2,78,0.00,,OVC,36.01,VWS V14.01,2013-03-01 19:49:00,
2013-03-01 14:54:00,33.8,28.0,29.56,NNW,338,5.4,8.1,79,0.00,,OVC,36.01,VWS V14.01,2013-03-01 19:54:00,
2013-03-01 14:59:00,33.8,28.3,29.56,NNE,22,7.2,7.2,80,0.00,,OVC,36.01,VWS V14.01,2013-03-01 19:59:00,
2013-03-01 15:00:00,33.3,29.5,29.56,NW,315,10.1,10.3,86,0.00,,,36.01,VWS V14.01,2013-03-01 20:00:00,
2013-03-01 15:04:00,33.6,28.7,29.56,NNW,338,6.5,9.0,82,0.00,,OVC,36.01,VWS V14.01,2013-03-01 20:04:00,
2013-03-01 15:09:00,33.4,28.5,29.56,NNW,338,6.0,7.4,82,0.00,,OVC,36.01,VWS V14.01,2013-03-01 20:09:00,
2013-03-01 15:14:00,33.3,29.0,29.56,NNW,338,3.8,4.0,84,0.00,,OVC,36.01,VWS V14.01,2013-03-01 20:14:00,
2013-03-01 15:19:00,33.3,29.2,29.56,NNW,338,5.4,7.4,85,0.00,,OVC,36.01,VWS V14.01,2013-03-01 20:19:00,
2013-03-01 15:24:00,33.4,29.7,29.56,NNW,338,4.9,7.4,86,0.00,,OVC,36.01,VWS V14.01,2013-03-01 20:24:00,
2013-03-01 15:29:00,33.6,30.5,29.56,NNW,338,3.6,6.0,88,0.00,,OVC,36.01,VWS V14.01,2013-03-01 20:29:00,
2013-03-01 15:30:00,32.9,29.7,29.59,NNW,338,4.9,6.3,88,0.00,,,36.01,VWS V14.01,2013-03-01 20:30:00,
2013-03-01 15:34:00,33.4,30.0,29.56,NNW,338,5.6,7.6,87,0.00,,OVC,36.01,VWS V14.01,2013-03-01 20:34:00,
2013-03-01 15:39:00,33.4,30.0,29.56,NNW,338,6.0,10.1,87,0.00,,OVC,36.01,VWS V14.01,2013-03-01 20:39:00,
2013-03-01 15:44:00,33.4,30.3,29.56,NNW,338,4.7,4.9,88,0.00,,OVC,36.01,VWS V14.01,2013-03-01 20:44:00,
2013-03-01 15:49:00,33.4,30.0,29.56,NW,315,6.0,6.0,87,0.00,,OVC,36.01,VWS V14.01,2013-03-01 20:49:00,
2013-03-01 15:54:00,33.3,29.8,29.56,NW,315,4.9,8.5,87,0.00,,OVC,36.01,VWS V14.01,2013-03-01 20:54:00,
2013-03-01 15:59:00,33.1,29.4,29.56,NNW,338,10.3,10.3,86,0.00,,OVC,36.01,VWS V14.01,2013-03-01 20:59:00,
2013-03-01 16:00:00,32.7,29.6,29.59,NNW,338,6.0,10.1,88,0.00,,,36.01,VWS V14.01,2013-03-01 21:00:00,
2013-03-01 16:04:00,33.1,29.4,29.59,NNW,338,6.0,7.8,86,0.00,,OVC,36.01,VWS V14.01,2013-03-01 21:04:00,
2013-03-01 16:09:00,32.9,29.2,29.59,NW,315,6.3,10.1,86,0.00,,OVC,36.01,VWS V14.01,2013-03-01 21:09:00,
2013-03-01 16:14:00,32.9,29.5,29.59,NW,315,3.8,4.7,87,0.00,,OVC,36.01,VWS V14.01,2013-03-01 21:14:00,
2013-03-01 16:19:00,32.9,29.5,29.59,NNW,338,3.8,6.5,87,0.00,,OVC,36.01,VWS V14.01,2013-03-01 21:19:00,
2013-03-01 16:24:00,32.9,29.7,29.59,NNW,338,5.6,5.6,88,0.00,,OVC,36.01,VWS V14.01,2013-03-01 21:24:00,
2013-03-01 16:29:00,32.7,29.6,29.59,NNW,338,4.0,8.5,88,0.00,,OVC,0.00,VWS V14.01,2013-03-01 21:29:00,
2013-03-01 16:30:00,32.4,29.5,29.62,NNW,338,5.4,9.4,89,0.00,,,36.01,VWS V14.01,2013-03-01 21:30:00,
2013-03-01 16:34:00,32.9,30.0,29.59,NNW,338,6.3,6.3,89,0.00,,OVC,36.01,VWS V14.01,2013-03-01 21:34:00,
2013-03-01 16:39:00,32.9,30.0,29.59,NNW,338,5.6,5.6,89,0.00,,OVC,36.01,VWS V14.01,2013-03-01 21:39:00,
2013-03-01 16:44:00,32.9,30.0,29.59,NNW,338,5.6,6.3,89,0.00,,OVC,36.01,VWS V14.01,2013-03-01 21:44:00,
2013-03-01 16:49:00,32.7,29.8,29.59,NNW,338,7.8,7.8,89,0.00,,OVC,36.01,VWS V14.01,2013-03-01 21:49:00,
2013-03-01 16:54:00,32.7,29.8,29.59,NNW,338,4.9,4.9,89,0.00,,OVC,36.01,VWS V14.01,2013-03-01 21:54:00,
2013-03-01 16:59:00,32.7,29.6,29.59,NNW,338,10.3,10.3,88,0.00,,OVC,36.01,VWS V14.01,2013-03-01 21:59:00,
2013-03-01 17:00:00,32.2,29.6,29.62,NNW,338,5.8,5.8,90,0.00,,,36.01,VWS V14.01,2013-03-01 22:00:00,
2013-03-01 17:04:00,32.5,29.4,29.62,NNW,338,5.4,6.5,88,0.00,,OVC,36.01,VWS V14.01,2013-03-01 22:04:00,
2013-03-01 17:09:00,32.5,29.4,29.62,NNW,338,5.6,5.8,88,0.00,,OVC,36.01,VWS V14.01,2013-03-01 22:09:00,
2013-03-01 17:14:00,32.5,29.7,29.62,NNW,338,4.7,8.7,89,0.00,,OVC,36.01,VWS V14.01,2013-03-01 22:14:00,
2013-03-01 17:19:00,32.4,29.5,29.62,NNW,338,4.9,6.9,89,0.00,,OVC,36.01,VWS V14.01,2013-03-01 22:19:00,
2013-03-01 17:25:00,32.4,29.5,29.62,NNW,338,7.2,8.5,89,0.00,,OVC,36.01,VWS V14.01,2013-03-01 22:25:00,
2013-03-01 17:30:00,32.2,29.3,29.62,NW,315,3.6,4.9,89,0.00,,OVC,36.01,VWS V14.01,2013-03-01 22:30:00,
2013-03-01 17:35:00,32.2,29.6,29.62,NNW,338,6.9,6.9,90,0.00,,OVC,36.01,VWS V14.01,2013-03-01 22:35:00,
2013-03-01 17:40:00,32.2,29.6,29.62,NW,315,3.4,8.5,90,0.00,,OVC,36.01,VWS V14.01,2013-03-01 22:40:00,
2013-03-01 17:45:00,32.2,29.6,29.62,NW,315,3.1,5.6,90,0.00,,OVC,36.01,VWS V14.01,2013-03-01 22:45:00,
2013-03-01 17:50:00,32.2,29.6,29.62,NW,315,4.9,5.4,90,0.00,,OVC,36.01,VWS V14.01,2013-03-01 22:50:00,
2013-03-01 17:55:00,32.2,29.6,29.62,NNW,338,5.4,5.6,90,0.00,,OVC,36.01,VWS V14.01,2013-03-01 22:55:00,
2013-03-01 18:00:00,32.2,29.6,29.62,NNW,338,3.4,7.8,90,0.00,,OVC,36.01,VWS V14.01,2013-03-01 23:00:00,
2013-03-01 18:05:00,32.2,29.6,29.62,NNW,338,4.7,6.3,90,0.00,,OVC,36.01,VWS V14.01,2013-03-01 23:05:00,
2013-03-01 18:10:00,32.2,29.6,29.62,NW,315,6.7,6.7,90,0.00,,OVC,36.01,VWS V14.01,2013-03-01 23:10:00,
2013-03-01 18:15:00,32.2,29.9,29.62,NNW,338,3.4,6.5,91,0.00,,OVC,36.01,VWS V14.01,2013-03-01 23:15:00,
2013-03-01 18:20:00,32.0,29.7,29.59,NNW,338,5.4,7.6,91,0.00,,OVC,36.01,VWS V14.01,2013-03-01 23:20:00,
2013-03-01 18:25:00,32.0,29.9,29.59,NNW,338,4.3,6.0,92,0.00,,OVC,36.01,VWS V14.01,2013-03-01 23:25:00,
2013-03-01 18:30:00,32.0,30.2,29.59,NNW,338,3.4,3.8,93,0.00,,OVC,36.01,VWS V14.01,2013-03-01 23:30:00,
2013-03-01 18:35:00,32.0,30.2,29.62,NNW,338,3.8,6.0,93,0.00,,OVC,36.01,VWS V14.01,2013-03-01 23:35:00,
2013-03-01 18:40:00,32.0,30.5,29.62,NNW,338,5.4,5.4,94,0.00,,OVC,36.01,VWS V14.01,2013-03-01 23:40:00,
2013-03-01 18:45:00,32.2,30.9,29.62,NW,315,6.0,6.0,95,0.00,,OVC,36.01,VWS V14.01,2013-03-01 23:45:00,
2013-03-01 18:50:00,32.2,30.9,29.62,NNW,338,6.5,6.5,95,0.00,,OVC,36.01,VWS V14.01,2013-03-01 23:50:00,
2013-03-01 18:55:00,32.2,30.9,29.62,NNW,338,4.0,4.3,95,0.00,,OVC,36.01,VWS V14.01,2013-03-01 23:55:00,
2013-03-01 19:00:00,32.2,31.2,29.62,NNW,338,3.6,6.5,96,0.00,,OVC,36.01,VWS V14.01,2013-03-02 00:00:00,
2013-03-01 19:05:00,32.2,31.2,29.59,NNW,338,5.6,5.6,96,0.00,,OVC,36.01,VWS V14.01,2013-03-02 00:05:00,
2013-03-01 19:10:00,32.2,31.2,29.59,NW,315,3.8,5.4,96,0.00,,OVC,36.01,VWS V14.01,2013-03-02 00:10:00,
2013-03-01 19:15:00,32.2,31.2,29.59,NNW,338,5.6,5.6,96,0.00,,OVC,36.01,VWS V14.01,2013-03-02 00:15:00,
2013-03-01 19:20:00,32.2,31.4,29.62,NNW,338,4.3,5.8,97,0.00,,OVC,36.01,VWS V14.01,2013-03-02 00:20:00,
2013-03-01 19:25:00,32.2,31.4,29.62,NNW,338,4.7,5.4,97,0.00,,OVC,36.01,VWS V14.01,2013-03-02 00:25:00,
2013-03-01 19:30:00,32.2,31.4,29.62,NNW,338,4.3,4.3,97,0.00,,OVC,36.01,VWS V14.01,2013-03-02 00:30:00,
2013-03-01 19:35:00,32.2,31.4,29.62,NW,315,4.7,5.6,97,0.00,,OVC,36.01,VWS V14.01,2013-03-02 00:35:00,
2013-03-01 19:40:00,32.2,31.4,29.62,NW,315,3.4,5.8,97,0.00,,OVC,36.01,VWS V14.01,2013-03-02 00:40:00,
2013-03-01 19:45:00,32.2,31.4,29.62,NNW,338,3.6,5.6,97,0.00,,OVC,36.01,VWS V14.01,2013-03-02 00:45:00,
2013-03-01 19:50:00,32.2,31.7,29.62,NW,315,5.6,5.6,98,0.00,,OVC,36.01,VWS V14.01,2013-03-02 00:50:00,
2013-03-01 19:55:00,32.0,31.5,29.62,NNW,338,5.6,5.6,98,0.00,,OVC,36.01,VWS V14.01,2013-03-02 00:55:00,
2013-03-01 20:00:00,32.0,31.5,29.62,NNW,338,4.0,4.3,98,0.00,,OVC,36.01,VWS V14.01,2013-03-02 01:00:00,
2013-03-01 20:05:00,32.0,31.5,29.62,NNW,338,4.3,5.6,98,0.00,,OVC,36.01,VWS V14.01,2013-03-02 01:05:00,
2013-03-01 20:10:00,32.0,31.5,29.62,NNW,338,3.6,4.0,98,0.00,,OVC,36.01,VWS V14.01,2013-03-02 01:10:00,
2013-03-01 20:15:00,32.0,31.5,29.62,NNW,338,4.7,5.6,98,0.00,,OVC,36.01,VWS V14.01,2013-03-02 01:15:00,
2013-03-01 20:20:00,32.2,31.7,29.62,NW,315,4.3,6.3,98,0.00,,OVC,36.01,VWS V14.01,2013-03-02 01:20:00,
2013-03-01 20:25:00,32.2,31.7,29.62,NNW,338,4.0,4.0,98,0.00,,OVC,36.01,VWS V14.01,2013-03-02 01:25:00,
2013-03-01 20:30:00,32.2,31.7,29.62,NW,315,3.8,3.8,98,0.00,,OVC,36.01,VWS V14.01,2013-03-02 01:30:00,
2013-03-01 20:35:00,32.2,31.7,29.62,NW,315,5.4,5.4,98,0.00,,OVC,36.01,VWS V14.01,2013-03-02 01:35:00,
2013-03-01 20:40:00,32.2,31.7,29.62,NNW,338,4.0,4.9,98,0.00,,OVC,36.01,VWS V14.01,2013-03-02 01:40:00,
2013-03-01 20:45:00,32.2,31.7,29.62,NNW,338,3.6,4.3,98,0.00,,OVC,36.01,VWS V14.01,2013-03-02 01:45:00,
2013-03-01 20:50:00,32.2,31.7,29.62,NNW,338,4.0,4.0,98,0.00,,OVC,36.01,VWS V14.01,2013-03-02 01:50:00,
2013-03-01 20:55:00,32.2,31.7,29.62,NNW,338,4.3,4.3,98,0.00,,OVC,36.01,VWS V14.01,2013-03-02 01:55:00,
2013-03-01 21:00:00,32.2,31.7,29.62,NNW,338,2.5,3.8,98,0.00,,OVC,36.01,VWS V14.01,2013-03-02 02:00:00,
2013-03-01 21:05:00,32.2,31.7,29.59,NNW,338,2.9,4.0,98,0.00,,OVC,36.01,VWS V14.01,2013-03-02 02:05:00,
2013-03-01 21:10:00,32.2,31.7,29.59,NNW,338,2.7,4.0,98,0.00,,OVC,36.01,VWS V14.01,2013-03-02 02:10:00,
2013-03-01 21:15:00,32.2,31.7,29.59,NNW,338,2.7,3.1,98,0.00,,OVC,36.01,VWS V14.01,2013-03-02 02:15:00,
2013-03-01 21:20:00,32.2,31.7,29.62,NNW,338,2.9,3.1,98,0.00,,OVC,36.01,VWS V14.01,2013-03-02 02:20:00,
2013-03-01 21:25:00,32.2,31.7,29.62,NNW,338,2.0,3.1,98,0.00,,OVC,36.01,VWS V14.01,2013-03-02 02:25:00,
2013-03-01 21:30:00,32.0,31.5,29.62,NNW,338,1.6,2.2,98,0.00,,OVC,36.01,VWS V14.01,2013-03-02 02:30:00,
2013-03-01 21:35:00,32.0,31.5,29.62,NNW,338,2.5,3.6,98,0.00,,OVC,36.01,VWS V14.01,2013-03-02 02:35:00,
2013-03-01 21:40:00,32.0,31.5,29.62,NW,315,3.8,4.0,98,0.00,,OVC,36.01,VWS V14.01,2013-03-02 02:40:00,
2013-03-01 21:45:00,32.0,31.5,29.62,NNW,338,3.8,3.8,98,0.00,,OVC,36.01,VWS V14.01,2013-03-02 02:45:00,
2013-03-01 21:50:00,32.0,31.5,29.65,NW,315,3.8,4.3,98,0.00,,OVC,36.01,VWS V14.01,2013-03-02 02:50:00,
2013-03-01 21:55:00,32.0,31.5,29.65,NNW,338,7.2,7.2,98,0.00,,OVC,36.01,VWS V14.01,2013-03-02 02:55:00,
2013-03-01 22:00:00,32.0,31.5,29.65,NW,315,5.4,5.4,98,0.00,,OVC,36.01,VWS V14.01,2013-03-02 03:00:00,
2013-03-01 22:06:00,32.0,31.5,29.62,NNW,338,3.8,4.0,98,0.00,,OVC,36.01,VWS V14.01,2013-03-02 03:06:00,
2013-03-01 22:11:00,32.0,31.5,29.62,NW,315,3.1,4.0,98,0.00,,OVC,36.01,VWS V14.01,2013-03-02 03:11:00,
2013-03-01 22:16:00,31.8,31.3,29.62,NW,315,2.9,3.1,98,0.00,,OVC,36.01,VWS V14.01,2013-03-02 03:16:00,
2013-03-01 22:21:00,31.8,31.3,29.62,NW,315,1.3,2.5,98,0.00,,OVC,36.01,VWS V14.01,2013-03-02 03:21:00,
2013-03-01 22:26:00,31.8,31.3,29.62,NW,315,1.6,2.5,98,0.00,,OVC,36.01,VWS V14.01,2013-03-02 03:26:00,
2013-03-01 22:30:00,31.8,31.3,29.62,NNW,338,3.6,3.6,98,0.00,,,36.01,VWS V14.01,2013-03-02 03:30:00,
2013-03-01 22:31:00,31.8,31.3,29.62,NW,315,1.1,2.2,98,0.00,,OVC,36.01,VWS V14.01,2013-03-02 03:31:00,
2013-03-01 22:36:00,31.8,31.3,29.62,NW,315,2.9,4.0,98,0.00,,OVC,36.01,VWS V14.01,2013-03-02 03:36:00,
2013-03-01 22:41:00,31.8,31.3,29.62,NW,315,2.7,2.7,98,0.00,,OVC,36.01,VWS V14.01,2013-03-02 03:41:00,
2013-03-01 22:46:00,31.8,31.3,29.62,NNW,338,2.2,2.9,98,0.00,,OVC,36.01,VWS V14.01,2013-03-02 03:46:00,
2013-03-01 22:51:00,31.8,31.3,29.62,NNW,338,3.1,4.3,98,0.00,,OVC,36.01,VWS V14.01,2013-03-02 03:51:00,
2013-03-01 22:56:00,31.8,31.3,29.62,NNW,338,2.7,3.1,98,0.00,,OVC,36.01,VWS V14.01,2013-03-02 03:56:00,
2013-03-01 23:00:00,31.8,31.3,29.62,NNW,338,2.5,2.7,98,0.00,,,36.01,VWS V14.01,2013-03-02 04:00:00,
2013-03-01 23:01:00,31.8,31.3,29.62,NW,315,3.4,3.4,98,0.00,,OVC,36.01,VWS V14.01,2013-03-02 04:01:00,
2013-03-01 23:06:00,31.8,31.3,29.62,NW,315,3.8,4.3,98,0.00,,OVC,36.01,VWS V14.01,2013-03-02 04:06:00,
2013-03-01 23:11:00,31.8,31.3,29.62,NNW,338,3.1,3.4,98,0.00,,OVC,36.01,VWS V14.01,2013-03-02 04:11:00,
2013-03-01 23:16:00,31.8,31.3,29.62,NNW,338,2.5,3.4,98,0.00,,OVC,36.01,VWS V14.01,2013-03-02 04:16:00,
2013-03-01 23:21:00,31.8,31.3,29.62,NNW,338,2.7,3.4,98,0.00,,OVC,36.01,VWS V14.01,2013-03-02 04:21:00,
2013-03-01 23:26:00,31.8,31.3,29.62,NNW,338,3.6,3.6,98,0.00,,OVC,36.01,VWS V14.01,2013-03-02 04:26:00,
2013-03-01 23:30:00,32.0,31.5,29.59,NNW,338,3.8,3.8,98,0.00,,,0.00,VWS V14.01,2013-03-02 04:30:00,
2013-03-01 23:31:00,32.0,31.5,29.62,NNW,338,3.8,3.8,98,0.00,,OVC,36.01,VWS V14.01,2013-03-02 04:31:00,
2013-03-01 23:36:00,32.0,31.5,29.59,NNW,338,2.7,3.4,98,0.00,,OVC,36.01,VWS V14.01,2013-03-02 04:36:00,
2013-03-01 23:41:00,32.0,31.5,29.59,NW,315,4.0,4.0,98,0.00,,OVC,36.01,VWS V14.01,2013-03-02 04:41:00,
2013-03-01 23:46:00,32.0,31.5,29.59,NW,315,3.8,3.8,98,0.00,,OVC,36.01,VWS V14.01,2013-03-02 04:46:00,
2013-03-01 23:51:00,32.0,31.5,29.59,NW,315,4.0,4.3,98,0.00,,OVC,36.01,VWS V14.01,2013-03-02 04:51:00,
2013-03-01 23:56:00,32.0,31.5,29.59,NW,315,3.6,4.3,98,0.00,,OVC,0.00,VWS V14.01,2013-03-02 04:56:00,